Find Starlink 38163

NORAD ID: 100250 Int'l Des: 2026-181 Owner: SPXS Country: US Constellation: starlink operational

現在のビュー

3D地球を読み込み中...

About Starlink 38163

Starlink 38163 (NORAD 100250) is a starlink constellation satellite launched Aug 8, 2026 by SPXS of US. with a mass of 575.00 kg.

次回通過

Passes for default location (London). Set your location on the main map for personalized predictions.

高度履歴

Loading altitude history...

軌道要素

1 A0250U 26181E 26262.87293136 .00235214 00000-0 15317-2 0 9998
2 A0250 97.2842 306.3115 0001255 72.5061 287.6341 15.75237099 7853
Epoch: Sep 19, 2026 • Age: 18 hours

現在のステータス

高度 344.9 km
遠地点 / 近地点 N/A
速度 7.70 km/s
衛星直下点 10.42°N, 76.93°E
打ち上げ日 Aug 8, 2026
運用期間 0.1 years
タイプ internet

技術仕様

分類 Payload
質量 575.00 kg
乾燥質量 530.00 kg
長さ 0.30 m
スパン 29.00 m
形状 ? Box + pan
製造者 SPXS
バスタイプ Starlink V2MO
フェーズステータス In Orbit
所有者/国 SPXS/US

Most Searched